STARLINK-11197, 60186

Orbit data source: Space-Track

STARLINK-11197, 60186 is a payload satellite owned by SpaceX/Seattle (US) in LEO that was launched on Wed, 03 Jul 2024 UTC via an FALCON 9 launch vehicle from the Air Force Eastern Test Range (AFETR). Payload-class satellites include a variety of spacecraft equipped with specific instruments for various scientific and technological missions. These include communications satellites like Starlink; space stations such as the ISS; scientific satellites like the Hubble; Earth observation satellites from companies like Planet Labs, Umbra, and HawkEye 360; GPS; miniature CubeSats for education and research; and military/defense satellites.

Loading next visibility...
Identifier
60186, 2024-124D
Orbit
LEO
Country
Flag of USUS
Related business
Manufacturer
SpaceX/Seattle
Mission
Operational spacecraft
Bus & Motor
STARLINK V2MD, Unknown motor
Mass
960 kg wet, ~910 kg dry
Launch date (UTC)
2024-07-03 (2 years ago)
Launch vehicle
FALCON 9
Launch site
Air Force Eastern Test Range (AFETR)
Object type
Payload
Rocket body
Debris
Shape & HBR
Unknown shape, 18.1 m
Radar Cross Section
Large (>1 m²)

Expand to show TLE details & history
Last TLE update: 2 days ago

TLE from 2 days ago
0 STARLINK-11197
1 60186U 24124D   26035.11137296 -.00000527  00000-0  50922-6 0  9999
2 60186  53.1586 326.5344 0001083 103.4539 256.6600 15.69701854 91264
Epoch: 2026-02-04T02:40Z
TLE epoch observation values (Epoch: 2026-02-04T02:40:22.623Z)
Latitude
-0.00001°
Longitude
152.15749°
Altitude
360.833 km
Speed
7.694 km/s
True Right ascension
21h 46m 08s
True Declination
0° 00' 00"
Sunlit
Object was in daylight at epoch
Visualization orbit readout
Latitude
Unknown
Longitude
Unknown
Altitude
Unknown
Speed
Unknown
Apparent Right ascension
Unknown
Apparent Declination
Unknown
Sunlit
N/A
Visualization observer readout
Local Sidereal Time
17:13:40
Azimuth
Unknown
Elevation
Unknown
Doppler factor
Unknown
Orbital elements
Apogee altitude
360.741 km
Perigee altitude
359.281 km
Semi-major axis
6,738.148 km
Eccentricity
0.00011
Inclination
53.1586°
RAAN
326.5344°
Arg. of periapsis
103.4539°
True anomaly
256.64792°
Mean anomaly
256.66°
Eccentric anomaly
256.65396°
Mean motion
3.92403 °/min
Orbital period
91.74 mins
BSTAR
5.0922e-7
Loading maneuver chart data...
Computing Atmospheric mass density...
Loading historical data...
Loading historical data...
Loading historical data...
Loading historical data...
Loading historical data...
Loading historical data...
Loading historical data...

Documentation

Showing up to 5 results
|